Location: Remedello Sotto
(45.2500°N, 10.3667°E)
Time: 06:11:58
(UTC+00:00)

CZ-4B DEB - Pass Details

Date: 12 August 2024
Orbit: 835 x 857 km, 99.0° (Epoch: 19 September)

Event Time Altitude Azimuth Distance (km) Brightness Sun altitude
Rises 19:13:51 0° 184° (S) 3,409 7.1 -7.8°
Reaches altitude 10° 19:16:20 10° 192° (SSW) 2,480 6.5 -8.2°
Maximum altitude 19:21:32 41° 262° (W) 1,217 5.5 -9.0°
Drops below altitude 10° 19:26:46 10° 332° (NNW) 2,503 7.7 -9.8°
Sets 19:29:18 0° 340° (NNW) 3,444 8.3 -10.1°
